Simultaneous Nadir Overpasses (SNOs) Predictions

Prediction of SNOs between NOAA-19 and TERRA Satellite Orbit:

Table of predicted SNOs for the next 14.0 days since TLE Epoch: 5/26/2018
Index Date (NOAA-19) Time (NOAA-19) Lat,Lon (NOAA-19) SZA (NOAA-19 ) Date (TERRA) Time (TERRA) Lat,Lon (TERRA) SZA (TERRA ) Distance(km) Time Diff (sec)
1 05/27/2018 07:51:07 77.03, 78.32 56.27 05/27/2018 07:52:03 77.05, 78.25 56.30 2.93 56
2 05/27/2018 08:42:11 -77.01,-114.37 123.75 05/27/2018 08:41:31 -77.02,-114.23 123.75 3.57 40
3 05/29/2018 13:24:48 -77.07, 174.79 124.06 05/29/2018 13:25:49 -77.05, 174.79 124.07 2.69 61
4 05/29/2018 14:15:43 77.01, -17.68 55.90 05/29/2018 14:15:15 77.03, -17.61 55.92 2.96 28
5 05/31/2018 18:58:20 77.08, -88.59 55.63 05/31/2018 18:59:33 77.05, -88.61 55.62 3.52 73
6 05/31/2018 19:49:24 -77.04, 78.84 124.41 05/31/2018 19:49:01 -77.03, 78.92 124.42 2.47 23
7 06/03/2018 00:32:05 -77.27, 7.21 124.55 06/03/2018 00:33:16 -77.18, 8.44 124.53 31.79 71
8 06/03/2018 01:22:55 77.03, 175.60 55.30 06/03/2018 01:22:45 77.03, 175.49 55.28 2.55 10
9 06/05/2018 06:56:36 -77.04, -87.82 124.96 06/05/2018 06:56:30 -77.07, -87.81 124.94 2.35 6
10 06/07/2018 12:30:07 77.05, 8.84 54.82 06/07/2018 12:30:14 77.05, 8.71 54.81 3.29 7




NCC Satellite Simultaneous Nadir Overpasses (SNOs) Prediction Service
